Regional Weather Roundup
Issued by NWS

Home | Current Version | Previous Version | Text Only | Print | Product List | Glossary Off
Versions: 1 2 3 4 5 6 7 8 9 10 11 12 13 14 15 16 17 18 19 20 21 22 23 24 25 26 27 28 29 30 31 32 33 34 35 36 37 38 39 40 41 42 43 44 45 46 47 48 49 50

000
ASUS45 KCYS 282110
RWRWY

WYOMING REGIONAL WEATHER ROUNDUP
NATIONAL WEATHER SERVICE CHEYENNE WY
300 PM MDT THU JUL 28 2016

NOTE:  "FAIR" INDICATES FEW OR NO CLOUDS BELOW 12,000 FEET
WITH NO SIGNIFICANT WEATHER AND/OR OBSTRUCTIONS TO VISIBILITY.

WYZ001-282200-
YELLOWSTONE NATIONAL PARK

CITY           SKY/WX    TMP DP  RH WIND       PRES   REMARKS
LK YELLOWSTONE   N/A     73  33  23 VRB5      30.37F
W YELLOWSTONE  NOT AVBL

$$
WYZ002>013-054>058-071-098>099-282200-
NORTHERN WYOMING

CITY           SKY/WX    TMP DP  RH WIND       PRES   REMARKS
JACKSON        SUNNY     82  25  12 W17G23    30.25S
CODY           FAIR      75  52  43 NE9       30.22F
GREYBULL       FAIR      84  42  22 VRB3      30.12F
WORLAND        FAIR      83  47  28 VRB3      30.14F
SHERIDAN       FAIR      78  52  40 W6        30.17F
BUFFALO        CLOUDY    72  49  44 N10       30.24S
GILLETTE       PTSUNNY   74  56  53 VRB3      30.19F
HULETT         FAIR      70  59  68 W3        30.20F
NEWCASTLE      FAIR      70  50  49 CALM      30.20F

$$
WYZ014>020-022>026-101>103-282200-
CENTRAL WYOMING

CITY           SKY/WX    TMP DP  RH WIND       PRES   REMARKS
BIG PINEY      FAIR      88  23   9 NW14G20   30.26F
PINEDALE       FAIR      82  28  14 W13G20    30.27F
DUBOIS         FAIR      82  23  11 N14G21    30.26F
LANDER         FAIR      83  47  28 NE8       30.17F
RIVERTON       FAIR      82  46  28 VRB7      30.19F
CASPER         FAIR      80  44  27 MISG      30.20F
DOUGLAS          N/A    N/A N/A N/A MISG      30.21S

$$
WYZ021-027>030-104>119-282200-
SOUTHERN WYOMING

CITY           SKY/WX    TMP DP  RH WIND       PRES   REMARKS
EVANSTON       FAIR      88  23   9 NW22G36   30.30S
KEMMERER         N/A     86  27  11 W18G38    30.30F
FORT BRIDGER   FAIR      92  27   9 W18G26    30.30F
ROCK SPRINGS   FAIR      87  27  11 NW18G26   30.23F
DIXON          FAIR      91  31  12 W14       30.25S
RAWLINS        FAIR      85  37  18 W14G22    30.25F
SARATOGA       FAIR      81  41  24 N12G24    30.27S
LARAMIE        FAIR      75  47  36 CALM      30.28F
CHEYENNE       FAIR      73  55  53 E10       30.26S
TORRINGTON     FAIR      78  49  35 CALM      30.16F
PINE BLUFFS    FAIR      73  52  46 E12       30.22S

$$



USA.gov is the U.S. government's official web portal to all federal, state and local government web resources and services.